Location: Altoona
(40.5167°N, 78.4000°W)
Time: 21:39:58
(UTC-05:00)

Daily predictions for brighter satellites

Satellite Brightness Start Highest point End
(mag) Time Altitude Azimuth Time Altitude Azimuth Time Altitude Azimuth
USA 215 3.3 17:06:05 10° SE 17:12:37 82° NE 17:19:11 10° NW
CSL-04 Debris 4.4 17:09:15 10° SE 17:14:25 49° ENE 17:19:36 10° N
Cosmos 1634 Rocket 4.0 17:10:24 10° S 17:16:36 84° E 17:22:53 10° N
Hubble Space Telescope 3.3 17:15:29 10° SSW 17:17:48 15° S 17:20:07 10° SE
USA 161 2.9 17:19:51 10° N 17:22:33 40° WNW 17:25:21 10° SSW
Cosmos 1378 Rocket 4.2 17:19:13 10° SSW 17:23:36 62° W 17:28:02 10° N
Cosmos 1092 Rocket 4.5 17:18:07 10° NNW 17:24:18 68° W 17:30:31 10° S
Cosmos 1655 Rocket 4.1 17:22:01 10° N 17:28:18 58° E 17:34:35 10° SSE
NOSS 2-3 (C) 4.4 17:28:14 10° SW 17:32:49 59° NW 17:38:11 10° NNE
Meteor 1-12 Rocket 4.2 17:29:14 10° N 17:34:54 70° E 17:40:38 10° SSE
CSL-04 Rocket 3.7 17:30:20 10° SSE 17:35:44 85° ENE 17:41:15 10° NNW
Meteor 1-28 Rocket 3.3 17:32:26 10° NNE 17:36:08 54° E 17:39:49 10° S
Cosmos 1898 Rocket 4.1 17:32:25 10° SSW 17:37:31 58° WNW 17:42:43 10° NNE
Aureole 1 Rocket 4.1 17:32:23 10° NNW 17:38:19 82° ENE 17:45:56 10° SSE
Ariane Rocket 2.9 17:34:43 10° SSE 17:39:46 80° ENE 17:44:51 10° NNW
Cosmos 1743 2.9 17:36:46 10° N 17:40:33 49° E 17:44:19 10° SSE
Cosmos 2026 Rocket 4.2 17:35:10 10° N 17:41:34 81° W 17:47:52 10° S
Cosmos 1697 Rocket 4.2 17:38:56 10° SE 17:42:17 16° E 17:44:23 13° ENE
Cosmos 2266 Rocket 4.5 17:37:30 10° N 17:43:01 35° ENE 17:48:32 10° SE
SKYMED 2 4.4 17:39:23 10° NE 17:43:13 30° E 17:47:01 10° SSE
CENTAUR R/B 4.4 17:38:54 10° NNW 17:43:43 17° NNE 17:47:34 13° ENE
Cosmos 389 Rocket 2.3 17:41:14 10° N 17:44:43 66° E 17:48:08 10° SSE
CZ-2C R/B 3.8 17:42:22 10° NNE 17:46:59 59° E 17:51:39 10° S
METEOR-M 4.3 17:42:50 10° SE 17:47:55 47° ENE 17:53:01 10° N
Cosmos 2082 4.4 17:42:58 10° N 17:47:55 31° ENE 17:52:52 10° ESE
Cosmos 1125 Rocket 4.3 17:44:36 10° SSE 17:49:16 32° E 17:53:17 13° NE
SMAP 3.1 17:45:41 10° SSE 17:50:20 83° WSW 17:55:01 10° NNW
IRS-1A Rocket 4.2 17:45:11 10° SSE 17:50:42 63° ENE 17:56:11 10° N
Cosmos 1937 Rocket 4.0 17:47:05 10° SSW 17:52:12 60° WNW 17:57:19 10° NNE
AQUARIUS 4.3 17:48:25 10° S 17:52:54 79° WSW 17:57:25 10° NNW
Atlas Centaur 2 3.6 17:50:31 10° WSW 17:54:42 24° S 17:58:14 10° SE
ALOS 2.8 17:57:30 10° SE 18:01:45 36° ENE 18:06:01 10° N
USA 238 DEB 3.8 17:55:03 10° NNW 18:02:05 59° NE 18:09:09 10° SE
Landsat 4 3.7 17:58:20 10° NNE 18:02:08 58° ESE 18:05:53 10° S
USA 238 3.8 17:55:10 10° NNW 18:02:11 58° NE 18:09:14 10° SE
Cosmos 2227 Rocket 2.3 17:56:48 10° NNW 18:02:20 50° ENE 18:07:47 10° SE
DELTA 2 R/B (1) 3.7 17:57:07 10° WSW 18:02:40 75° S 18:06:33 20° E
Cosmos 2219 3.8 17:59:19 10° NNW 18:04:51 60° WSW 18:10:21 10° S
Cosmos 1271 Rocket 2.8 18:04:24 10° NNW 18:08:11 79° W 18:12:01 10° S
Cosmos 1455 Rocket 3.0 18:05:49 10° N 18:10:16 88° W 18:14:39 10° S
Cosmos 1975 4.4 18:08:48 10° NNW 18:12:33 38° W 18:16:18 10° SSW
Meteor 2-9 Rocket 4.1 18:07:46 10° N 18:13:17 65° ENE 18:18:37 10° SSE
Cosmos 1544 Rocket 3.7 18:09:45 10° NNW 18:14:07 74° W 18:18:25 10° S
YAOGAN 1 2.6 18:12:29 10° S 18:16:49 82° WSW 18:21:10 10° NNW
ISS -3.8 18:16:13 10° NW 18:19:27 56° NNE 18:19:54 50° ENE
ERS-2 2.0 18:15:59 10° SSE 18:19:35 62° ENE 18:23:13 10° N
Cosmos 372 Rocket 4.0 18:14:51 10° S 18:19:57 59° ESE 18:23:18 21° NNE
Abrixas rocket 3.5 18:17:49 10° W 18:20:44 29° NNW 18:21:25 27° N
Cosmos 1980 Rocket 3.5 18:17:41 10° SE 18:20:55 20° ESE 18:20:55 20° ESE
BREEZE-M DEB (TANK) 4.2 18:19:03 10° NW 18:21:55 39° NNE 18:23:32 30° ENE
CZ-4 R/B 2.6 18:19:30 10° S 18:23:10 42° W 18:26:56 10° NNW
Cosmos 2297 Rocket 2.1 18:23:54 10° NNW 18:29:34 70° ENE 18:35:12 10° SSE
COSMO-SKYMED 1 2.6 18:27:10 11° N 18:31:22 78° WNW 18:35:41 10° SSW
NOSS 3-2 (A) 4.1 18:25:33 10° NNW 18:32:56 56° NE 18:40:02 14° SE
Cosmos 1666 4.5 18:34:42 10° NNW 18:38:04 32° W 18:41:24 10° SSW
NOSS 3-2 (C) 4.2 18:31:15 10° NNW 18:38:30 49° NE 18:42:30 28° ESE
Meteor 2-4 Rocket 3.9 18:35:03 10° SSW 18:40:29 69° W 18:45:52 10° N
Okean 2 4.1 18:36:42 10° SSE 18:39:28 36° SE 18:39:28 36° SE
PSLV R/B 3.6 18:39:25 10° WSW 18:42:02 55° SW 18:42:02 55° SW
ATLAS 2AS CENTAUR R/B 3.7 18:37:04 10° WSW 18:44:39 52° NW 18:51:14 16° NNE
SJ 16-02 1.4 18:41:53 10° SSW 18:46:15 74° WNW 18:48:01 35° N
DMSP B5D1-3 4.4 18:43:42 22° NNE 18:47:07 84° ESE 18:52:13 10° SSW
Meteor 1-15 Rocket 4.2 18:44:18 10° N 18:50:16 79° E 18:56:10 10° SSE
Cosmos 1656 3.6 18:45:03 10° SSW 18:50:39 85° WNW 18:53:14 33° NNE
SPOT 3 Rocket 3.7 18:45:49 10° S 18:50:59 74° WSW 18:56:11 10° NNW
ATLAS 3B R/B 2.8 18:46:14 10° NW 18:52:51 72° WSW 18:59:18 10° SSE
Meteor 2-11 Rocket 4.3 18:50:46 10° S 18:56:54 76° E 19:00:57 23° NNE
Cosmos 1241 Rocket 4.4 18:51:13 10° SSW 18:57:32 68° ESE 18:59:02 51° ENE
Hubble Space Telescope 3.2 18:56:06 10° SW 18:58:16 14° S 18:59:11 13° S
Cosmos 2369 4.0 18:52:46 10° SSW 18:58:23 65° WNW 19:01:30 27° N
Cosmos 2278 4.0 18:54:34 10° SSW 19:00:12 66° WNW 19:03:06 29° N
Nadezhda 2 Rocket 4.4 18:55:19 10° N 19:01:40 84° E 19:08:03 10° S
NOSS 3-4 (A) 3.3 18:59:24 10° SSW 19:05:34 70° ESE 19:06:30 61° ENE
NOSS 3-4 (C) 3.3 18:59:30 10° SSW 19:05:40 69° ESE 19:06:32 61° ENE
Thor Agena Rocket 3.9 19:06:52 49° SSE 19:06:52 49° SSE 19:10:56 10° S
Gbstr 26 Del rocket 4.2 19:00:57 10° SW 19:08:57 82° SE 19:10:43 56° ENE
Cosmos 1025 Rocket 3.7 19:10:39 10° SSW 19:14:01 51° SW 19:14:01 51° SW
Cosmos 1697 Rocket 2.9 19:20:00 10° SSW 19:25:36 67° WNW 19:26:11 62° NNW
FengYun 1-2 T 4.3 19:20:13 10° S 19:25:47 74° WSW 19:31:28 10° NNW
CENTAUR R/B 3.5 19:28:48 10° NNW 19:34:48 44° NNE 19:34:48 44° NNE
Atlas Centaur 2 4.2 19:40:32 10° SW 19:41:46 13° SW 19:41:46 13° SW
Cosmos 2227 Rocket 4.4 19:41:42 10° NW 19:45:58 22° W 19:50:14 10° SSW
Cosmos 1980 Rocket 3.7 19:59:42 10° SW 20:02:44 31° SW 20:02:44 31° SW
